GFSNIL_prec_cthk_000.txt.gz
RH
66 66 67 69 72 68 63 64 64 57 51 52 49 50 47 45 49 51 54 61 66 62
61 65 71 71 69 71 72 69 61 54 49 49 40 41 44 50 56 57 61 68 70 69
72 73 70 70 67 68 57 48 41 42 38 38 42 47 53 56 63 69 75 84 90 93
74 70 69 65 53 45 38 29 28 33 36 41 49 52 60 71 76 79 83 89 95 96
70 68 61 50 44 37 30 32 38 44 45 47 52 55 59 61 63 66 74 83 84 84
61 55 53 47 44 39 38 44 46 45 46 46 46 45 46 45 46 45 43 39 37 40
57 49 44 44 41 43 46 45 44 49 52 51 52 51 48 45 42 39 37 32 29 33
50 47 45 45 47 47 47 47 52 53 50 52 52 50 47 43 44 48 47 43 41 39
70 84 77 79 69 54 54 56 60 54 53 52 52 52 53 51 59 64 66 64 59 55
77 87 86 77 60 64 61 65 63 55 55 56 57 59 55 58 68 74 74 71 71 72
68 70 78 61 70 71 75 78 54 54 59 60 61 62 66 66 77 82 82 80 80 78
77 92 76 73 74 81 84 54 55 57 60 59 57 54 67 85 89 92 90 93 95 95
84 95 89 75 78 85 57 53 57 55 53 54 52 68 89 95 96 94 93 97 97 94
93 96 79 74 83 58 50 54 53 51 54 50 60 82 91 93 92 95 96 97 94 90

GFSNIL_prec_cthk_003.txt.gz
RH
54 59 63 56 72 69 67 64 59 50 46 42 38 39 39 39 41 47 50 55 56 61
68 68 69 76 82 69 64 60 51 51 39 36 39 39 39 41 43 48 52 56 65 69
74 75 75 75 62 61 55 54 53 38 32 32 34 39 44 46 44 46 53 61 68 77
59 56 55 56 49 49 46 45 36 34 32 34 38 38 37 38 37 34 35 39 49 54
45 56 58 57 51 43 47 41 40 33 37 36 40 42 40 40 44 42 43 43 40 38
46 60 76 74 60 63 72 70 62 46 40 41 43 44 44 47 47 46 48 48 49 47
40 52 71 64 69 82 94 82 53 49 40 47 43 46 44 45 46 51 56 56 56 58
50 58 65 80 78 97 86 68 63 56 51 49 42 45 49 55 55 57 57 59 63 65
35 49 64 67 98 85 70 70 73 58 49 39 46 52 60 60 60 65 71 75 76 77
41 46 54 67 90 93 89 76 74 52 39 46 55 60 60 60 65 78 87 88 86 86
35 39 48 67 93 94 87 76 57 41 45 54 60 59 53 58 80 91 94 93 89 89
44 46 54 76 91 89 79 64 44 43 49 51 54 50 49 73 87 91 91 89 92 94
44 55 64 78 80 74 71 56 44 47 48 55 53 47 56 77 86 88 91 93 94 96
51 61 64 67 74 79 69 46 46 47 56 58 51 45 59 73 84 89 93 96 98 98

GFSNIL_prec_cthk_006.txt.gz
RH
59 61 60 64 65 75 72 73 57 55 49 46 41 32 28 26 28 32 37 41 45 49
67 62 60 61 42 42 43 49 56 60 52 37 28 30 35 41 38 32 35 37 36 40
50 43 39 36 39 52 56 61 70 68 55 47 50 51 51 52 30 34 37 35 35 38
36 39 42 44 45 53 62 84 79 71 72 68 59 53 52 43 34 38 40 43 45 46
38 40 44 46 49 56 63 71 80 88 80 72 61 53 46 36 43 40 40 42 45 45
28 28 32 43 42 51 66 80 93 80 72 68 63 56 49 39 40 44 49 51 51 51
26 23 26 38 48 70 72 73 70 78 77 72 63 49 45 45 46 49 52 55 58 59
21 20 26 36 41 47 59 62 73 85 81 68 53 50 51 49 51 53 51 53 65 72
22 21 24 27 34 48 59 67 88 92 78 54 47 53 51 53 51 46 51 67 73 75
21 23 28 33 46 56 72 82 90 75 66 47 53 51 52 50 46 47 66 75 80 77
24 26 32 44 55 76 86 83 75 70 54 51 49 50 50 49 43 56 72 83 84 87
29 31 38 52 59 64 69 73 79 64 54 51 48 50 50 44 40 62 83 88 90 95
32 41 47 59 66 71 76 84 76 62 49 50 51 50 46 40 42 69 82 90 93 96
38 45 54 62 70 76 88 92 76 56 50 49 49 48 45 43 48 73 85 91 93 95

GFSNIL_prec_cthk_009.txt.gz
RH
56 61 59 58 54 49 40 37 42 51 59 60 66 58 51 50 52 50 50 45 37 34
53 51 45 42 37 36 36 40 51 62 69 74 75 70 65 57 65 59 45 46 43 38
43 40 35 34 33 35 40 46 51 54 56 67 74 74 71 65 63 53 50 47 44 42
31 30 30 27 26 31 39 47 54 50 58 75 71 69 74 70 61 50 43 43 45 49
34 29 24 21 23 33 43 48 52 56 62 65 71 65 61 62 49 46 47 47 51 51
30 26 21 18 20 26 28 32 44 49 51 53 67 69 69 50 47 51 51 53 53 51
27 23 21 21 22 26 30 40 44 50 54 62 76 77 56 50 49 53 57 56 48 42
28 23 23 23 23 27 37 46 51 57 64 82 75 62 50 50 51 56 52 47 43 53
28 25 25 24 26 32 43 51 59 69 78 75 67 56 50 51 52 52 48 43 45 66
29 28 27 26 28 38 46 57 71 72 69 68 65 55 48 48 49 46 44 42 62 77
28 29 30 31 37 45 52 60 66 67 74 75 65 51 45 44 44 41 41 47 73 83
31 30 32 36 42 51 59 64 68 74 82 80 61 50 43 41 41 42 41 59 83 91
32 31 35 42 47 55 64 72 80 86 86 69 57 47 41 42 42 42 42 69 89 93
33 35 40 47 55 64 72 76 72 65 66 59 50 45 44 43 44 45 47 73 90 94

GFSNIL_prec_cthk_012.txt.gz
RH
53 51 48 44 37 32 30 30 29 31 32 38 46 51 49 57 56 63 53 54 52 53
50 45 39 34 30 27 24 24 31 35 40 62 57 62 59 55 65 61 55 55 52 47
47 42 36 30 26 22 19 24 32 40 52 61 57 54 52 57 52 56 54 44 44 48
45 41 33 27 23 20 20 30 35 46 43 44 48 42 43 50 57 57 46 43 44 45
44 36 31 26 22 20 20 28 33 37 38 48 50 47 54 64 64 60 43 42 44 48
40 35 30 25 22 20 22 29 35 38 49 50 53 56 69 63 60 48 43 46 49 50
40 35 29 24 22 24 27 31 37 43 48 52 56 65 68 69 58 44 45 47 50 46
39 32 26 25 27 27 29 31 41 45 52 57 65 69 67 66 58 44 44 45 44 42
34 29 27 28 29 30 33 38 42 49 61 68 67 67 73 72 51 47 41 38 39 39
33 30 29 29 30 32 38 44 49 57 63 65 68 77 83 66 52 41 38 41 39 39
32 33 30 28 30 34 41 50 58 64 68 75 80 82 73 55 43 37 42 41 42 46
34 32 30 30 34 39 46 55 61 68 76 79 73 64 56 45 40 41 43 42 45 53
33 34 33 36 41 48 53 62 68 70 63 55 58 55 48 44 41 44 43 44 47 59
33 34 39 43 47 52 56 59 59 57 54 57 53 48 46 44 47 46 44 43 48 60

GFSNIL_prec_cthk_015.txt.gz
RH
60 59 54 46 42 37 30 25 21 20 25 33 39 40 55 55 45 38 37 39 42 37
62 53 49 47 40 32 26 22 20 22 29 35 46 40 46 44 34 33 39 45 49 43
53 53 50 43 36 28 23 21 22 29 36 47 46 42 42 36 39 43 52 51 50 42
56 50 47 37 29 26 24 22 25 34 38 42 43 43 50 46 48 54 55 57 48 42
54 49 41 34 29 27 25 24 27 34 40 41 41 51 51 51 59 60 63 62 47 42
51 44 39 33 29 28 27 26 28 32 36 45 51 54 54 59 68 69 68 63 48 45
48 44 39 33 30 29 28 28 33 39 44 50 52 58 60 67 68 69 75 60 50 45
49 43 38 34 30 28 29 31 37 39 44 53 60 67 69 67 74 79 70 54 43 37
46 43 37 33 29 27 30 32 36 42 48 57 63 67 70 77 80 76 54 42 37 41
44 39 35 32 30 29 29 33 39 47 56 63 69 72 76 77 67 52 43 38 40 42
38 36 33 32 31 30 32 35 42 49 57 62 67 71 65 55 48 42 38 42 44 46
36 33 33 32 32 34 37 43 49 54 58 57 57 52 50 46 42 40 44 45 46 45
31 30 29 30 34 38 42 47 50 54 55 53 51 50 48 45 42 45 48 45 41 44
29 28 28 31 38 42 45 47 51 55 56 54 54 51 51 47 48 51 48 41 35 42

GFSNIL_prec_cthk_021.txt.gz
RH
70 78 83 71 60 44 45 41 35 36 39 41 45 47 45 51 58 60 60 49 57 51
71 73 60 48 43 40 36 34 37 40 42 44 43 40 51 54 62 64 56 62 69 61
69 69 67 59 42 39 38 38 44 43 39 37 41 42 52 47 48 63 60 75 73 61
66 65 61 46 43 42 42 49 47 44 41 39 40 43 42 50 62 63 72 74 67 65
67 60 52 50 51 49 54 52 48 43 41 45 46 43 44 46 59 57 63 62 68 74
61 56 52 55 54 57 57 51 47 43 45 45 45 42 46 48 49 54 60 68 75 79
61 56 58 60 60 61 56 52 47 45 47 46 44 53 50 49 55 61 68 74 77 73
58 64 66 63 63 60 57 52 48 50 48 48 54 60 57 50 60 66 68 68 65 56
65 70 70 65 62 58 54 54 49 52 50 50 56 53 50 48 53 57 57 56 49 45
74 77 65 62 58 53 53 53 56 52 49 49 51 46 44 43 45 48 50 47 47 47
74 66 61 59 55 51 53 54 51 52 51 49 49 48 46 44 43 48 49 50 49 54
67 63 61 56 54 52 50 47 54 52 51 51 54 55 50 46 45 50 53 54 57 55
68 64 60 58 51 53 53 53 53 50 50 51 58 54 51 45 44 50 54 58 59 51
66 64 57 53 51 54 53 52 50 49 49 57 61 59 48 46 48 52 55 56 50 50

GFSNIL_prec_cthk_024.txt.gz
RH
53 61 62 62 59 58 60 53 47 37 35 35 41 44 47 42 39 49 52 58 62 65
59 65 67 61 55 52 51 49 39 38 39 43 43 43 47 38 50 59 56 60 67 71
63 67 68 57 55 60 55 41 41 44 47 48 45 43 47 49 50 48 53 62 66 75
66 68 60 58 62 61 50 45 51 52 50 49 49 55 56 51 45 48 50 61 62 73
65 69 61 62 65 58 52 54 58 54 51 51 53 55 48 42 50 47 46 52 54 62
66 73 73 64 64 59 57 62 62 55 53 53 55 58 53 56 59 51 48 51 52 60
73 77 71 66 62 66 69 67 65 58 55 55 56 57 56 65 62 50 48 55 59 62
76 69 76 66 76 77 65 66 64 64 58 59 60 59 60 62 58 48 47 51 54 54
76 77 73 82 74 63 70 69 66 68 65 65 65 60 52 54 43 39 42 46 46 46
80 80 86 81 66 75 68 69 73 69 66 64 66 50 51 47 38 37 40 42 41 44
86 85 82 74 77 70 72 68 64 66 67 68 64 53 48 51 45 43 42 40 43 47
92 87 75 78 75 70 68 67 67 66 64 65 56 46 50 57 52 45 42 44 47 52
86 88 80 74 71 70 67 67 66 63 62 56 51 48 53 61 52 44 45 47 50 51
87 79 76 73 72 69 63 64 62 60 52 45 46 48 61 61 52 50 48 49 52 52

GFSNIL_prec_cthk_027.txt.gz
RH
57 56 59 61 67 66 67 54 46 48 60 52 38 41 46 46 48 48 47 55 55 57
60 61 64 68 70 66 62 54 52 53 51 44 42 44 47 49 50 50 53 53 54 60
65 65 67 69 72 64 67 63 54 50 46 48 52 55 57 57 56 60 59 56 57 58
64 67 72 72 70 73 64 76 62 52 54 57 57 57 59 61 59 57 58 62 55 50
71 75 73 71 72 71 69 61 58 61 63 57 57 60 58 55 60 65 72 68 58 54
73 71 71 73 76 75 74 69 74 63 65 64 64 61 66 68 73 72 71 67 56 48
71 71 76 79 74 78 75 79 65 68 71 72 74 69 66 73 75 74 65 59 50 47
70 75 74 75 78 81 82 81 72 73 78 79 72 71 73 75 69 66 58 48 41 43
75 71 76 82 86 89 81 75 75 78 79 77 73 76 69 62 63 56 40 35 37 38
75 77 84 91 92 83 79 79 80 79 73 77 75 70 61 63 55 49 48 44 40 38
81 85 89 90 86 89 84 79 78 78 74 72 68 61 56 54 52 54 56 51 41 43
85 91 97 94 89 84 79 76 68 69 68 58 52 53 50 52 55 58 61 51 46 46
93 93 93 89 82 80 71 68 63 55 51 48 47 49 50 52 57 60 57 51 48 50
97 93 85 79 74 72 63 54 45 42 46 41 42 47 51 56 57 61 60 58 53 49

GFSNIL_prec_cthk_030.txt.gz
RH
66 69 72 73 74 74 75 76 77 61 70 52 51 59 56 49 50 53 55 55 58 60
70 72 75 75 78 76 74 81 76 69 68 53 59 50 50 51 57 57 58 57 62 63
72 74 75 76 75 80 82 68 71 66 63 57 61 54 58 57 58 64 64 64 65 66
74 75 79 81 78 72 70 79 77 74 64 66 62 60 60 64 63 68 72 72 69 72
69 75 77 70 69 70 75 79 72 71 70 64 65 66 68 69 70 70 74 76 80 76
71 68 62 61 65 71 72 68 71 76 72 69 73 74 76 68 68 78 79 78 74 67
67 63 65 67 70 71 70 73 78 79 71 75 76 78 77 79 76 81 73 71 67 54
68 70 71 70 71 73 76 81 85 80 82 77 75 77 85 78 76 72 66 55 46 44
77 74 69 74 76 78 79 84 82 84 80 77 82 79 76 70 64 56 48 43 46 49
71 73 77 79 79 83 88 95 92 84 80 79 72 66 62 53 49 48 46 47 51 56
77 75 75 75 82 91 96 92 83 79 71 65 58 52 47 45 45 45 49 52 57 57
92 85 83 89 96 96 89 84 75 68 59 47 39 39 39 42 45 46 50 55 57 50
95 93 97 96 92 88 80 67 52 44 32 30 33 39 43 47 49 49 53 57 56 57
89 92 90 89 78 57 50 40 28 22 24 30 35 40 45 48 49 54 56 62 65 63

GFSNIL_prec_cthk_033.txt.gz
RH
58 69 74 75 80 74 77 77 72 80 94 87 65 65 64 63 55 57 54 59 64 65
63 71 71 78 78 82 80 86 93 89 77 75 69 70 56 61 58 63 66 68 68 65
61 64 72 73 76 80 85 84 82 75 77 74 73 65 64 67 67 70 68 65 63 64
66 74 75 76 78 78 76 73 72 74 78 74 73 72 76 74 70 65 65 64 64 63
79 83 83 79 75 69 68 72 76 77 75 79 78 80 79 76 72 62 62 68 69 66
81 83 80 74 69 69 73 72 74 77 82 83 82 81 78 72 70 74 71 65 61 57
82 77 73 71 74 73 70 73 78 78 81 87 88 82 81 80 77 69 64 53 48 42
80 77 78 76 72 73 77 74 77 80 87 94 90 83 81 78 70 58 50 42 38 37
80 86 81 75 74 82 83 90 89 89 95 96 85 80 71 66 48 37 38 41 44 44
78 74 77 83 83 82 86 90 91 96 96 90 80 75 51 31 32 37 41 43 43 44
74 79 80 81 81 83 95 93 94 90 84 77 60 30 26 29 33 40 44 45 45 47
79 86 93 89 98 93 95 93 80 74 59 40 22 22 25 31 38 43 45 46 47 49
91 90 97 89 92 94 91 71 61 48 28 21 18 21 27 35 43 47 50 49 50 53
89 91 89 88 80 68 56 42 33 25 22 22 23 26 31 39 44 53 53 54 55 57

GFSNIL_prec_cthk_036.txt.gz
RH
64 66 68 73 78 86 83 85 84 81 77 94 83 86 74 69 66 63 66 63 63 65
58 62 63 74 86 82 81 79 78 78 78 84 75 74 73 68 68 69 66 65 64 63
52 59 68 76 79 85 84 82 75 81 77 76 78 73 73 73 74 73 70 71 69 69
63 73 82 84 86 84 79 76 81 80 83 79 72 75 78 80 78 75 77 70 68 64
82 82 84 82 78 76 73 81 83 79 71 74 78 78 84 87 79 77 73 72 65 49
84 83 77 73 72 78 77 81 82 71 82 89 85 87 93 83 78 78 76 68 48 34
78 73 74 72 75 76 81 83 79 80 88 84 88 97 93 86 81 77 70 46 31 31
68 67 70 75 77 78 81 75 78 90 80 86 96 97 94 83 71 64 48 31 31 35
66 69 76 82 85 81 72 76 91 91 97 97 97 95 93 80 64 43 27 29 34 38
71 78 82 80 80 79 87 93 97 95 93 92 94 89 83 56 35 24 27 32 38 42
78 80 81 77 78 91 92 93 97 95 91 91 84 66 44 29 23 25 28 35 42 47
70 74 78 86 94 91 88 89 91 90 86 72 52 35 25 21 23 27 32 41 48 57
75 83 83 86 87 87 87 86 79 67 53 38 26 23 23 23 25 30 37 48 58 66
80 86 88 87 83 71 62 55 45 34 27 22 23 24 27 30 32 38 47 54 57 62

GFSNIL_prec_cthk_039.txt.gz
RH
70 71 70 66 69 79 80 86 90 90 87 89 85 79 90 73 74 67 67 69 66 65
67 67 61 69 71 79 83 89 88 90 89 84 77 84 81 80 68 68 79 74 70 65
63 58 66 74 79 85 88 91 93 90 81 80 90 89 76 72 74 86 83 77 71 65
60 69 73 80 89 92 94 94 88 78 75 86 90 82 75 76 87 93 83 79 76 70
70 77 81 88 90 93 93 83 80 74 79 86 88 86 85 86 94 86 82 81 78 73
71 76 79 85 87 83 79 74 75 77 83 90 83 79 86 95 96 90 84 83 80 73
58 64 71 79 79 70 76 85 84 82 83 88 88 92 95 98 98 94 85 83 75 57
54 61 63 66 65 69 79 79 84 79 78 91 91 96 97 97 96 92 85 73 50 34
54 56 58 65 71 77 79 85 76 74 92 95 93 97 98 96 93 82 63 43 32 29
50 57 61 66 71 77 78 89 80 95 97 95 93 92 92 84 65 45 31 25 26 32
57 60 64 66 70 84 88 82 89 89 89 88 88 84 68 47 33 24 21 24 29 34
55 59 62 67 76 83 84 84 85 86 84 78 56 42 35 26 21 21 22 26 31 40
59 64 68 73 78 81 84 81 68 57 47 39 34 28 24 23 25 25 28 30 36 46
68 71 73 72 63 58 55 48 41 37 32 29 27 24 25 28 33 35 36 39 42 46

GFSNIL_prec_cthk_045.txt.gz
RH
77 70 66 77 88 87 85 89 91 85 81 89 89 92 93 94 86 87 88 82 81 87
82 70 55 57 71 76 77 78 75 79 86 89 93 95 95 91 89 85 78 79 84 91
72 60 51 52 67 72 74 75 81 84 88 91 92 96 96 89 88 80 79 82 85 88
63 58 56 58 73 70 69 68 74 81 83 84 89 93 86 76 74 77 84 86 91 94
63 65 57 69 64 63 60 56 58 64 77 80 79 94 78 73 80 87 97 97 94 93
57 63 65 62 60 60 59 59 62 67 72 70 75 74 70 80 90 93 97 97 92 90
57 61 64 63 60 64 63 62 68 70 72 79 76 71 81 87 91 86 88 89 86 85
63 62 61 59 57 61 63 65 65 73 74 73 73 81 79 83 83 87 92 84 79 72
60 56 58 57 51 49 50 53 57 63 65 69 73 73 82 84 87 88 79 71 62 53
49 45 44 42 43 48 51 53 55 62 67 69 74 76 77 77 72 67 59 51 43 41
41 39 40 44 45 45 47 51 55 61 64 67 68 66 61 56 51 44 41 40 41 44
36 38 40 42 44 48 53 57 58 58 56 54 50 44 44 40 39 41 40 39 41 46
38 41 46 49 51 53 52 48 47 48 47 45 45 44 44 42 41 41 40 40 40 43
45 47 49 51 50 49 46 45 47 43 45 44 44 45 44 43 41 39 36 34 33 31

GFSNIL_prec_cthk_048.txt.gz
RH
67 66 70 73 69 63 74 78 86 90 88 91 86 87 92 94 93 96 96 94 88 92
65 75 74 69 63 55 59 79 88 84 82 82 86 92 92 86 91 98 97 86 88 85
77 66 66 65 62 56 62 84 74 69 71 69 68 69 75 79 82 86 90 88 86 84
75 73 69 66 68 62 72 70 61 62 60 59 58 63 68 74 72 73 76 79 77 84
76 69 65 72 71 73 71 63 62 61 63 62 64 71 76 73 73 74 70 77 80 84
69 65 63 67 74 65 66 66 62 56 61 64 66 71 72 82 79 68 70 84 82 86
60 66 64 61 64 68 69 65 60 59 62 62 63 62 73 68 73 73 77 81 81 86
62 65 68 70 69 65 60 58 60 59 55 56 62 68 70 68 72 76 79 77 79 74
64 66 66 60 58 59 58 50 47 50 56 57 58 65 69 72 76 76 74 67 61 54
66 64 61 57 49 45 41 43 47 49 53 58 61 67 69 70 70 65 58 51 45 41
61 53 47 44 41 40 42 44 46 50 55 60 62 63 62 57 49 44 38 40 43 43
48 42 40 36 38 40 42 47 50 56 58 56 52 49 47 44 41 39 39 39 37 36
39 35 36 39 43 46 49 49 49 49 49 48 47 47 45 44 43 41 37 34 32 30
36 38 42 43 44 46 48 50 48 47 46 48 47 46 45 45 40 35 32 30 28 27

GFSNIL_prec_cthk_051.txt.gz
RH
75 73 71 78 71 69 73 65 71 78 82 82 86 85 78 77 82 88 86 82 87 89
66 67 74 71 76 69 68 66 60 80 84 71 71 67 67 65 67 66 71 69 77 88
65 64 66 74 68 65 64 70 64 77 74 63 65 64 64 66 65 76 70 83 73 72
71 76 74 87 78 74 77 78 72 76 68 67 65 61 61 65 74 78 68 85 75 81
78 91 78 94 78 71 76 82 76 68 66 68 63 61 64 72 64 66 79 90 87 79
88 85 76 67 64 64 70 68 68 68 66 62 60 62 63 65 69 61 74 76 73 76
60 64 56 58 59 65 69 71 67 67 62 59 62 61 57 60 66 66 75 75 76 81
51 51 53 60 63 66 68 69 64 59 59 58 55 54 59 64 66 72 71 75 79 76
45 54 58 63 67 70 68 62 60 56 49 50 54 57 62 63 66 71 75 73 67 54
52 62 64 65 66 65 59 50 46 45 48 50 53 56 60 63 68 67 63 51 48 43
63 63 64 62 57 49 43 41 40 42 45 47 50 54 59 62 57 50 47 42 40 44
66 65 59 52 46 41 38 37 40 43 47 51 54 56 54 50 48 45 42 45 46 42
57 52 50 46 41 38 39 42 46 49 50 49 47 48 49 50 49 49 49 45 39 35
48 48 42 37 37 40 43 46 47 47 47 47 49 53 55 56 55 52 49 43 40 38

GFSNIL_prec_cthk_054.txt.gz
RH
62 71 73 73 77 73 68 74 68 69 71 82 78 81 78 81 78 70 65 69 69 72
59 65 70 75 73 74 64 57 72 70 68 75 78 67 66 69 68 67 65 65 64 72
66 67 68 66 68 84 82 81 75 75 74 78 76 64 66 66 61 58 61 64 64 87
74 78 79 79 71 81 92 91 91 87 80 78 71 66 65 62 57 60 65 66 61 66
72 84 89 93 94 86 70 81 93 88 86 76 69 70 63 61 59 64 60 62 61 64
69 66 85 83 74 73 68 68 78 77 74 73 69 63 60 58 60 67 59 65 63 63
60 58 68 70 66 62 65 68 71 69 69 70 62 57 60 60 60 61 60 59 71 67
54 60 66 68 65 65 65 68 69 71 70 60 58 59 59 59 58 55 59 66 69 76
53 62 68 63 67 70 71 73 73 67 62 59 59 53 52 51 54 58 65 68 70 75
54 55 59 65 73 72 71 72 67 66 62 56 48 47 50 55 57 60 64 69 71 63
54 58 61 65 73 75 74 69 64 55 48 45 48 51 54 55 60 64 65 61 54 55
59 57 61 64 66 69 61 52 50 46 43 44 46 48 52 56 62 59 53 53 54 54
62 69 66 67 66 54 51 49 42 39 42 45 48 53 56 56 53 55 55 56 59 58
53 59 60 54 52 51 46 40 39 42 47 51 54 55 54 55 59 61 62 62 58 52

GFSNIL_prec_cthk_057.txt.gz
RH
46 51 54 60 64 60 63 66 64 72 74 68 85 85 83 81 79 77 78 72 68 68
48 54 57 63 70 72 75 77 70 78 75 72 75 88 80 73 71 74 67 66 69 61
48 53 59 66 71 76 77 85 86 76 78 83 83 83 85 76 70 67 66 62 59 61
59 59 66 65 70 73 76 82 92 92 87 86 88 89 88 81 72 69 66 60 63 65
78 72 74 77 79 84 84 79 87 92 87 85 89 89 89 80 76 70 66 62 63 58
74 77 71 64 73 92 78 70 70 78 79 88 89 83 85 78 72 65 62 65 61 69
55 67 68 67 65 85 83 72 64 67 78 81 80 81 79 75 68 66 65 61 58 66
45 54 68 62 63 68 78 68 70 71 77 80 77 73 71 68 62 62 57 61 59 61
42 53 63 68 64 70 67 70 73 72 74 75 74 70 68 64 61 56 58 56 60 60
44 54 64 66 71 73 71 75 74 74 77 78 78 76 70 63 55 54 57 56 60 63
45 52 55 58 61 61 67 70 79 85 83 86 79 70 60 53 52 54 57 61 65 71
44 47 54 59 65 67 72 80 87 83 82 68 61 55 49 50 54 58 62 68 74 79
46 48 54 58 61 70 78 80 81 75 64 60 56 50 51 55 59 62 66 69 66 60
51 52 54 57 63 69 75 72 62 59 61 60 56 54 56 59 63 65 61 58 65 67

GFSNIL_prec_cthk_060.txt.gz
RH
50 54 54 58 57 55 58 63 66 66 64 59 57 58 78 88 95 91 90 84 85 83
45 49 52 55 59 60 59 60 61 63 59 62 67 64 75 89 91 88 79 76 76 80
45 47 53 55 56 59 64 64 64 68 74 75 80 84 80 79 88 90 82 82 78 69
50 56 55 54 54 69 71 73 81 86 90 92 90 90 92 94 92 90 90 84 81 76
64 62 69 69 65 69 73 78 80 83 86 95 92 87 89 88 92 94 92 92 84 78
59 62 63 70 69 68 67 75 84 89 84 83 89 90 89 90 98 95 89 82 76 73
41 48 52 62 73 75 73 72 84 75 73 73 73 87 88 86 87 86 82 76 74 69
30 37 44 47 59 74 80 69 74 88 81 72 75 76 83 85 86 75 73 70 69 69
26 35 40 48 55 68 74 75 73 76 80 76 76 77 78 81 75 74 74 72 71 64
25 30 36 45 53 60 71 75 77 79 76 78 80 78 84 85 86 85 80 74 66 63
26 33 41 46 53 62 68 73 79 76 78 80 80 84 88 88 86 77 75 69 62 59
29 39 47 53 52 58 65 71 77 75 76 80 86 93 95 96 82 76 72 62 59 60
38 40 45 52 52 59 63 66 71 75 75 80 85 89 92 76 69 70 68 64 62 64
47 47 47 49 52 55 57 60 65 70 75 82 85 89 69 67 69 71 71 69 68 71

GFSNIL_prec_cthk_066.txt.gz
RH
55 56 62 61 69 74 75 77 83 84 85 84 84 83 83 87 83 75 76 70 66 68
48 50 54 54 58 63 65 70 74 77 75 74 73 73 74 78 77 72 76 71 69 71
43 47 50 51 50 52 56 60 63 66 66 68 70 70 72 72 70 70 71 68 68 72
49 50 50 56 55 59 62 60 57 63 66 67 68 70 71 70 71 68 64 64 64 78
47 51 55 58 60 64 64 66 65 65 64 62 65 68 68 69 70 69 71 75 83 91
47 47 45 45 49 59 65 68 73 76 68 69 71 71 74 76 79 80 84 94 94 92
44 42 43 43 41 42 47 55 58 64 67 67 71 71 70 69 72 77 82 89 93 97
41 41 41 41 42 43 43 43 50 53 57 64 69 75 78 72 71 75 77 82 81 83
40 37 33 34 33 34 38 42 48 49 51 58 67 73 78 84 89 89 92 87 86 86
45 45 42 40 40 37 33 37 40 47 54 55 58 64 74 89 92 94 93 94 91 90
47 49 50 50 48 48 46 39 37 43 51 60 65 65 72 85 92 90 91 92 89 90
53 54 57 50 52 54 54 50 46 46 51 59 63 65 68 76 79 84 88 87 87 91
53 57 59 61 59 58 56 54 55 52 51 54 58 60 61 65 72 78 79 85 87 88
60 63 66 67 68 58 61 63 67 67 60 57 56 56 57 60 66 71 74 79 82 83

GFSNIL_prec_cthk_069.txt.gz
RH
58 66 67 71 76 78 74 76 81 87 91 92 93 90 92 85 87 80 79 83 92 86
49 52 55 56 58 61 62 68 70 74 77 86 87 85 85 83 79 78 78 82 90 85
45 47 50 49 48 49 51 56 61 67 70 73 73 74 74 72 73 76 79 77 79 81
47 50 54 54 54 54 49 49 54 56 58 62 66 67 68 66 69 72 73 74 75 77
41 46 51 55 60 62 63 62 64 66 63 57 59 62 62 65 65 67 70 70 74 72
40 40 42 46 50 55 57 58 63 68 67 68 71 70 68 67 68 69 70 72 76 76
43 43 44 45 45 46 44 46 50 52 59 64 66 70 68 70 72 73 71 71 71 71
47 49 49 47 47 47 45 45 45 46 46 49 52 55 62 63 66 72 77 83 82 75
46 48 50 48 46 45 44 43 43 42 45 46 47 49 51 55 62 69 75 80 80 85
52 49 46 46 44 43 42 45 42 40 38 36 41 44 47 51 56 60 65 71 83 92
55 52 51 51 51 54 52 48 49 50 49 46 40 41 44 51 61 74 75 77 78 86
60 57 56 54 53 52 53 53 50 54 56 56 56 54 51 57 64 71 73 74 75 79
71 68 68 60 60 57 54 57 60 62 62 63 66 71 71 67 62 65 68 69 69 71
67 69 70 70 72 70 69 67 72 72 75 75 72 74 77 82 77 68 66 66 66 66

GFSNIL_prec_cthk_072.txt.gz
RH
60 72 81 82 81 79 78 75 73 78 82 83 84 86 87 87 87 85 88 88 88 93
52 55 59 63 64 67 66 63 69 71 73 80 83 85 85 88 88 87 89 89 86 85
46 49 53 55 55 58 60 61 62 64 65 69 71 71 77 80 85 84 84 85 85 82
44 50 50 49 50 54 54 56 59 59 60 59 61 67 72 76 78 79 78 78 78 81
36 41 46 50 54 58 59 61 62 61 65 64 63 58 62 66 65 67 70 70 74 73
38 37 39 41 44 46 51 54 57 58 58 60 62 61 59 65 67 68 65 66 70 73
42 41 39 41 41 43 46 48 48 47 48 49 52 61 65 65 68 73 71 72 75 76
47 45 43 44 45 48 48 48 47 46 45 45 45 45 46 49 52 56 65 70 71 72
52 51 48 47 50 52 51 49 49 45 43 43 41 37 39 44 48 52 55 56 56 58
55 54 54 57 59 53 51 49 44 45 48 47 47 46 46 45 48 49 52 54 55 56
62 61 61 60 59 60 61 56 54 54 52 51 49 52 55 56 59 59 54 54 58 60
67 67 66 64 64 64 66 66 64 64 65 63 62 64 64 69 69 68 69 70 70 70
68 65 67 69 67 69 68 68 71 67 64 63 67 69 73 77 80 80 76 78 79 81
68 69 73 74 75 76 77 73 75 74 70 72 72 75 78 82 85 89 86 86 87 87

GFSNIL_prec_cthk_075.txt.gz
RH
52 66 76 78 76 77 79 82 82 81 75 72 74 77 79 82 83 84 88 90 96 93
48 51 58 67 73 71 71 74 71 68 69 71 76 84 85 85 84 84 88 91 96 92
44 47 49 51 53 57 59 59 62 64 66 70 69 76 80 86 88 88 88 90 91 90
42 48 50 49 47 50 52 51 52 58 59 61 65 64 67 70 75 78 81 83 83 86
38 41 44 47 50 55 58 60 60 62 59 60 64 64 63 61 67 70 71 73 78 79
39 40 41 43 45 47 48 49 51 54 57 61 63 65 62 60 60 58 60 64 65 64
43 42 41 44 45 44 46 47 47 47 47 47 47 48 51 56 63 64 65 67 71 73
46 47 48 46 45 47 48 50 52 52 51 50 47 44 44 44 45 48 50 50 51 55
49 49 51 53 52 51 50 53 56 54 54 53 50 45 44 47 46 45 44 43 44 47
58 57 54 54 54 55 57 60 58 58 57 53 50 51 55 58 60 59 56 55 55 55
73 66 61 60 58 55 57 59 62 64 65 63 57 60 61 63 65 63 62 65 65 65
77 76 73 77 74 66 63 64 59 67 71 68 65 70 69 73 73 73 76 74 75 77
70 71 72 72 70 78 78 77 76 76 77 70 75 74 74 76 77 78 79 81 83 85
69 71 71 72 71 73 76 78 80 87 90 89 88 83 76 81 82 82 82 82 84 87

GFSNIL_prec_cthk_078.txt.gz
RH
50 64 76 76 76 80 79 78 83 85 89 89 91 91 91 90 87 83 81 85 89 90
48 52 66 76 74 76 78 78 82 83 88 87 80 80 77 82 85 81 80 85 90 91
44 48 52 55 61 63 64 66 72 77 74 74 72 73 75 79 83 83 84 87 89 89
45 46 47 49 49 50 53 54 55 59 63 63 67 66 66 70 72 74 79 87 88 88
38 44 48 50 55 58 61 62 62 61 60 61 60 63 68 70 68 67 72 77 81 83
38 40 41 45 48 52 55 57 59 60 62 62 64 67 66 66 67 68 67 68 69 68
42 43 44 45 46 48 50 52 54 55 56 57 57 59 61 62 61 61 65 70 68 69
51 48 48 48 48 47 47 48 51 54 57 59 59 58 58 58 59 61 61 62 61 60
65 65 62 59 57 55 53 52 53 53 56 57 56 55 56 58 57 56 54 50 50 50
66 66 65 65 64 62 63 63 59 60 61 61 61 60 60 62 64 62 59 58 59 58
78 75 74 73 72 71 72 69 69 68 66 65 66 70 73 71 70 67 66 63 63 64
81 82 82 81 81 80 80 78 79 80 81 80 75 78 77 80 80 78 79 79 79 78
71 74 78 80 82 83 82 82 84 84 84 84 87 85 85 87 85 80 79 79 82 83
70 73 76 77 78 79 80 83 84 86 88 87 88 89 89 89 93 93 91 89 88 88

GFSNIL_prec_cthk_081.txt.gz
RH
48 57 70 76 83 91 93 94 97 95 96 95 87 88 92 94 94 93 95 93 86 86
45 53 66 75 78 79 80 82 86 89 90 87 84 82 88 89 89 93 93 92 90 90
40 47 58 70 75 76 78 82 85 90 91 91 89 90 82 84 92 94 93 93 94 91
36 41 49 58 63 68 67 63 67 77 85 85 83 83 81 83 87 86 92 91 91 85
38 40 42 45 49 50 50 51 53 56 61 65 66 69 71 73 74 75 75 75 74 76
42 42 41 45 48 53 56 59 62 65 66 64 66 66 68 69 72 73 71 70 70 71
45 45 44 45 46 51 54 55 54 54 55 55 56 58 60 63 65 66 65 65 64 67
55 52 50 50 51 51 51 52 56 57 57 58 59 59 60 62 62 60 59 57 59 64
70 67 63 62 61 61 61 61 58 56 55 56 57 61 66 72 70 67 63 60 62 61
78 78 73 72 71 71 72 73 72 72 71 70 69 69 68 68 68 68 65 65 66 63
82 81 81 81 80 80 81 81 82 82 83 85 82 85 83 82 83 80 75 72 70 69
78 78 79 83 84 84 85 86 86 88 89 89 90 86 86 88 88 85 83 83 87 87
77 76 76 77 76 80 85 87 88 90 90 90 91 90 90 91 93 96 96 96 93 90
70 72 72 73 75 77 80 80 84 86 88 88 89 90 90 90 94 97 98 98 97 96

GFSNIL_prec_cthk_084.txt.gz
RH
47 54 65 76 89 99 98 97 95 97 97 97 96 92 86 90 89 90 91 90 88 82
46 52 60 72 81 89 98 99 98 97 97 98 96 97 92 89 92 94 93 93 92 90
43 50 58 69 77 84 84 88 89 89 91 92 95 97 93 91 91 90 89 90 91 93
40 46 55 65 74 78 77 78 81 83 86 89 89 92 89 88 81 81 87 89 92 95
40 42 46 56 64 69 71 69 62 63 71 83 88 86 80 78 76 78 79 83 85 85
39 40 44 47 50 53 54 55 55 56 59 60 63 67 70 71 74 74 78 80 82 81
42 41 40 43 47 51 54 56 59 60 62 64 66 67 71 73 75 74 74 74 72 72
49 47 47 46 45 45 46 48 51 53 54 55 56 59 62 65 66 67 66 66 66 65
63 60 58 57 57 55 54 54 54 54 54 54 57 62 66 68 67 69 68 66 66 66
75 75 74 72 71 67 68 69 69 71 72 71 74 74 71 70 69 69 68 69 71 73
81 82 83 82 82 80 79 78 80 81 82 83 82 81 84 86 88 88 88 87 87 87
80 81 82 83 84 84 84 85 83 84 86 88 86 86 88 90 91 94 95 95 92 93
80 84 82 80 82 82 81 82 84 85 87 88 88 87 88 89 92 95 97 99 96 94
68 68 73 78 83 85 84 81 80 81 82 84 86 87 89 91 93 95 97 96 94 94

GFSNIL_prec_cthk_087.txt.gz
RH
44 49 58 73 86 99 97 95 92 94 96 88 85 84 83 80 74 77 86 83 82 82
45 50 55 66 81 93 97 97 96 96 91 94 94 96 91 87 81 78 84 85 86 88
43 48 55 65 78 87 95 99 99 94 95 96 96 96 96 91 87 87 88 85 92 89
42 45 54 63 76 87 84 86 90 90 94 95 96 96 97 96 90 89 88 83 81 84
43 43 52 59 68 79 82 81 83 88 90 88 92 95 92 94 88 85 80 77 78 84
42 44 47 53 61 67 71 73 68 64 66 70 81 89 89 89 84 82 79 78 79 79
41 42 45 49 52 55 56 57 59 59 60 62 65 67 69 73 71 70 72 73 73 78
46 46 46 47 48 51 54 56 57 58 59 60 61 62 63 64 66 67 68 68 66 64
54 53 52 53 53 52 51 51 52 54 56 58 60 59 59 60 62 62 62 62 64 66
66 67 68 67 67 66 64 61 60 61 61 65 64 64 65 67 69 70 71 72 75 76
79 80 80 82 81 80 81 81 79 78 77 78 77 77 79 82 85 87 86 85 84 86
85 83 82 83 84 84 85 85 86 84 85 85 83 83 85 88 91 94 94 93 93 93
84 81 79 80 81 82 87 88 88 88 88 87 86 85 87 90 94 96 95 92 94 93
85 84 83 82 82 81 81 84 85 88 87 86 86 86 85 85 86 90 91 91 90 87

GFSNIL_prec_cthk_090.txt.gz
RH
37 39 46 53 69 86 98 98 97 98 99 99 99 92 86 88 76 75 80 82 83 77
39 42 48 56 69 86 98 99 98 98 99 97 92 89 94 83 73 83 87 84 79 80
39 41 48 57 71 84 99 99 94 98 98 94 92 91 83 80 89 88 87 86 86 87
38 40 46 58 72 86 92 98 94 94 93 91 93 91 94 94 95 93 88 84 86 85
38 40 48 58 70 85 84 88 93 96 89 92 93 94 95 97 96 92 89 87 83 80
39 41 48 55 65 74 81 82 83 87 87 93 89 89 94 99 93 95 86 83 78 73
38 43 48 54 60 65 69 70 68 67 67 67 76 78 83 91 89 81 74 72 70 70
41 46 49 51 54 56 57 58 59 61 63 64 66 67 69 72 71 74 72 69 67 65
49 51 52 52 54 55 55 57 59 61 62 62 60 58 59 60 60 60 62 65 67 66
53 54 56 57 58 58 58 59 60 61 61 59 59 62 63 65 68 71 74 75 77 78
64 63 65 68 71 72 72 73 72 74 71 69 69 70 72 76 79 80 78 80 81 82
75 73 78 84 85 87 87 86 86 87 87 87 87 87 89 91 90 89 89 90 91 92
94 93 93 94 94 94 93 92 91 92 93 94 95 94 95 97 97 96 95 94 93 93
96 95 96 95 95 92 91 90 91 91 90 90 91 92 95 95 95 97 96 97 96 91

GFSNIL_prec_cthk_093.txt.gz
RH
47 33 38 38 43 50 64 82 98 98 98 96 96 99 98 98 97 88 80 68 65 73
40 34 37 39 45 54 67 85 98 99 98 97 99 96 97 95 93 88 81 75 82 82
39 35 37 40 47 59 73 91 98 99 98 99 99 98 97 93 96 94 88 78 82 89
39 36 38 43 49 67 83 95 99 98 98 99 99 99 99 99 97 91 77 74 80 89
40 36 39 44 54 74 84 93 96 97 98 99 99 98 96 90 85 86 89 92 93 91
41 37 42 47 57 74 81 88 89 96 96 96 95 93 93 92 92 95 96 96 93 87
44 40 45 52 57 66 76 82 84 91 91 94 95 94 94 94 95 96 96 96 92 87
49 43 47 52 56 61 68 72 73 70 72 72 76 81 84 88 95 99 93 86 77 76
52 47 49 52 56 58 61 62 65 66 66 66 64 66 68 69 72 78 78 72 74 70
55 52 51 54 56 59 61 61 60 62 60 60 60 60 61 62 64 66 63 64 66 70
60 57 58 61 62 62 63 64 65 64 63 62 64 65 66 68 69 70 72 75 78 79
69 62 60 61 64 68 70 75 76 79 80 80 82 82 80 80 80 81 82 83 84 84
79 76 73 72 72 74 79 83 85 87 87 87 89 90 91 92 93 92 90 91 90 90
94 92 91 87 84 83 91 97 97 97 97 96 95 96 98 99 99 99 99 98 99 98

GFSNIL_prec_cthk_096.txt.gz
RH
58 66 62 50 40 34 39 43 50 59 74 85 97 99 97 96 98 98 98 98 96 88
68 63 60 47 33 40 41 48 57 70 88 97 98 97 98 98 98 98 97 97 95 90
59 64 55 41 39 39 44 55 68 77 94 99 99 97 99 98 96 98 98 98 96 88
65 62 51 42 38 41 49 67 80 85 96 99 98 98 99 98 98 97 98 97 91 82
67 60 51 41 40 43 61 74 82 91 98 98 99 98 99 99 98 98 97 95 95 88
64 61 51 42 42 49 67 78 79 92 97 98 99 98 99 99 96 94 97 98 92 86
63 62 51 45 46 53 63 77 83 90 96 97 98 98 99 99 98 97 94 93 94 96
67 65 53 47 50 55 63 69 79 87 90 94 96 96 95 95 95 96 96 98 98 97
72 71 62 55 53 59 64 66 66 68 70 78 84 91 90 97 97 98 97 96 98 98
74 74 65 60 57 59 63 63 61 63 65 66 68 70 73 78 87 88 94 94 83 81
82 73 66 64 61 59 61 64 65 64 64 64 64 65 66 66 66 67 67 68 66 67
84 78 75 71 67 65 62 63 64 65 67 68 69 69 69 70 70 71 71 73 74 77
88 83 79 79 77 72 69 70 70 71 74 77 80 81 82 81 81 80 80 81 84 88
89 85 82 81 80 80 75 72 74 75 77 80 84 86 87 88 89 90 90 91 92 94

GFSNIL_prec_cthk_099.txt.gz
RH
34 40 42 48 58 57 50 43 33 39 44 47 55 62 78 89 92 96 99 98 98 97
43 47 53 58 61 56 50 34 37 42 47 56 64 74 85 92 97 97 98 97 98 98
47 57 68 67 61 59 40 38 41 48 61 69 76 91 99 96 99 98 98 98 98 98
59 68 72 68 67 50 41 40 46 61 72 78 85 94 99 99 97 97 97 98 98 98
72 74 68 69 58 49 40 45 58 69 77 86 90 98 96 99 95 99 98 98 99 99
79 74 69 68 59 48 45 51 64 73 84 93 97 99 98 98 99 98 97 99 98 98
82 79 71 66 60 49 49 56 64 73 81 95 99 99 99 98 99 99 98 98 98 95
81 81 69 65 63 54 53 60 67 71 82 96 98 98 98 97 98 98 98 99 97 98
86 85 76 74 69 62 56 62 68 70 71 89 97 97 97 98 99 98 98 98 95 95
90 86 81 82 75 67 60 61 68 69 69 71 83 96 98 98 97 98 98 97 97 98
92 92 85 87 79 72 69 68 67 67 67 69 72 72 87 90 96 98 98 97 97 97
93 96 89 89 85 75 74 74 71 70 71 71 69 68 68 69 72 79 85 85 90 94
95 92 94 89 85 84 81 78 76 73 71 72 73 72 69 67 67 67 67 68 67 70
96 96 94 86 89 85 85 84 82 79 77 76 77 79 82 82 80 77 75 75 77 79

GFSNIL_prec_cthk_102.txt.gz
RH
35 32 31 31 31 35 42 47 59 63 55 44 42 42 47 49 54 66 81 93 93 94
43 37 35 37 35 41 48 59 67 59 46 41 45 46 50 57 64 72 78 91 95 94
51 50 48 47 42 49 57 69 64 51 41 43 45 51 63 70 73 83 86 92 94 97
61 57 59 53 54 62 72 74 60 44 42 46 57 72 77 78 86 97 98 95 98 98
71 58 58 61 73 74 75 64 50 42 46 54 68 74 81 86 96 99 97 98 99 99
69 67 67 78 78 78 69 54 47 46 51 61 71 81 90 93 98 98 98 98 98 96
74 79 83 85 82 74 68 55 50 50 54 59 70 86 97 98 97 98 98 97 98 99
83 88 88 84 81 72 66 60 55 54 59 65 71 91 98 99 98 98 98 99 97 98
86 87 89 85 80 76 68 66 61 59 65 69 70 86 97 98 98 99 99 99 98 99
88 92 90 88 82 82 76 68 64 63 68 70 69 80 94 96 97 99 98 99 99 98
96 94 93 92 91 88 78 72 70 66 69 73 73 75 78 94 98 98 99 99 99 99
97 93 96 96 95 91 87 72 74 71 70 70 72 73 76 83 90 98 98 97 97 96
99 99 95 97 96 95 91 86 72 75 73 72 74 78 74 71 72 77 85 90 96 98
98 96 98 95 97 97 94 91 85 79 81 78 76 74 78 77 76 71 71 70 71 78

GFSNIL_prec_cthk_105.txt.gz
RH
31 38 41 52 45 42 35 36 37 44 48 51 53 63 57 55 48 50 52 53 61 69
33 39 48 57 58 39 39 37 40 46 50 53 61 63 51 41 44 50 52 54 62 70
47 56 68 59 54 48 48 41 45 51 53 59 67 55 41 42 44 49 56 64 69 81
63 74 68 66 61 62 56 51 50 55 61 71 59 45 43 46 54 65 71 74 81 87
77 77 78 76 77 72 64 57 54 64 75 67 52 45 48 56 66 74 76 82 86 95
73 76 83 86 82 67 61 64 74 77 70 55 46 48 57 63 69 74 84 88 92 98
98 93 95 90 78 69 75 78 76 72 64 53 51 54 59 64 73 84 86 90 95 98
90 93 93 87 75 77 81 78 76 73 63 58 53 57 61 64 71 88 96 98 98 98
95 85 82 84 85 86 82 81 78 73 68 62 56 61 65 65 81 96 96 98 98 98
85 83 83 88 93 91 87 79 78 77 72 63 62 65 67 70 80 94 98 98 97 98
86 87 86 89 91 90 92 89 84 83 79 72 65 69 72 74 75 91 96 98 98 98
91 86 87 90 91 90 90 94 89 90 90 78 69 69 70 72 76 84 96 98 99 99
88 90 88 89 91 92 92 93 96 95 93 88 76 74 79 76 80 74 82 94 97 98
87 90 92 93 93 98 96 98 98 97 94 94 79 74 80 80 80 76 73 74 75 89

GFSNIL_prec_cthk_111.txt.gz
RH
39 40 40 45 44 44 43 48 46 46 57 67 71 69 65 58 47 51 59 60 62 68
40 46 46 50 52 50 52 53 50 49 62 66 67 69 59 62 48 52 60 60 63 69
57 58 57 58 54 54 58 57 56 55 60 69 70 59 57 48 49 50 56 62 65 75
68 65 64 62 62 63 57 55 56 60 65 72 68 62 53 50 49 54 61 64 76 73
79 72 67 66 72 74 62 58 61 63 66 67 70 76 54 51 54 62 66 72 70 54
77 76 75 72 77 77 69 68 65 71 75 76 77 79 62 59 64 67 70 71 67 63
84 81 79 78 79 77 70 74 80 89 93 91 89 79 70 63 65 67 76 73 69 55
96 92 92 89 80 72 70 76 85 92 94 91 90 81 70 68 72 80 74 72 60 55
98 98 97 95 94 90 92 97 97 96 94 92 87 73 71 77 83 80 78 72 61 55
95 99 97 97 99 99 98 96 92 98 97 84 75 79 84 87 85 82 80 73 64 56
96 99 97 98 98 96 97 98 97 97 87 85 87 86 85 87 89 87 84 80 74 64
98 98 97 97 98 98 98 98 98 98 96 97 96 96 96 95 91 88 87 85 82 77
92 94 97 98 98 98 99 97 98 94 96 97 97 97 96 95 93 88 88 90 88 82
74 78 78 87 95 94 97 98 97 95 93 96 94 95 96 92 94 89 91 93 90 87

GFSNIL_prec_cthk_114.txt.gz
RH
33 33 33 37 36 37 33 36 38 44 50 50 48 53 60 67 66 63 72 70 63 61
41 39 40 40 40 38 38 42 42 48 56 54 49 52 59 76 72 74 78 72 61 57
41 39 48 49 43 45 50 49 54 54 59 57 51 54 57 71 74 78 78 72 62 56
46 47 59 54 56 60 65 69 67 62 60 58 56 53 57 69 74 79 71 62 54 54
63 66 75 76 69 69 72 75 72 70 65 63 59 62 69 74 83 80 76 53 57 57
74 80 75 70 73 79 83 85 82 77 77 77 77 78 77 88 90 84 80 67 59 62
91 90 84 76 77 78 79 85 82 84 81 77 73 75 80 80 82 79 82 70 68 69
96 93 88 86 81 82 83 87 89 88 81 73 75 82 88 92 92 88 84 79 67 66
96 93 91 88 88 87 91 91 91 89 82 83 87 93 97 97 92 91 86 71 66 70
98 98 98 98 97 94 95 94 92 90 90 94 96 96 98 97 94 92 77 72 75 78
98 98 99 97 98 98 98 98 97 96 95 97 99 97 98 99 94 87 84 84 85 85
97 97 98 97 98 98 98 98 97 98 98 97 98 98 96 93 88 87 90 92 92 86
81 87 89 96 98 98 98 98 98 98 98 98 98 97 95 96 96 97 99 98 95 91
65 73 77 78 80 87 89 92 95 97 98 98 97 98 98 98 98 97 95 94 94 92

GFSNIL_prec_cthk_117.txt.gz
RH
35 30 26 25 23 32 67 36 37 28 31 35 37 46 55 58 59 57 60 73 73 78
48 44 38 28 29 34 54 40 42 35 30 31 35 39 52 58 60 58 59 63 76 70
59 54 41 31 37 38 43 59 46 47 33 38 37 36 49 56 58 61 60 63 67 72
52 51 40 32 42 48 53 60 61 61 46 41 41 43 50 57 61 67 68 71 78 78
49 40 43 52 64 65 73 78 76 68 67 50 48 51 55 65 67 69 76 80 80 84
61 53 52 57 68 78 78 93 85 77 79 71 57 56 62 67 72 72 76 83 85 88
80 73 66 69 80 89 83 74 74 77 79 77 64 61 65 76 79 82 81 87 93 91
94 89 84 91 84 84 81 79 81 83 84 76 76 78 82 86 90 89 85 89 91 96
98 97 94 93 94 85 84 83 78 87 92 93 96 96 93 89 89 87 88 88 89 87
99 98 99 96 97 95 93 91 90 90 90 93 93 97 98 94 93 95 94 95 94 94
95 98 98 98 98 98 98 99 96 99 100 95 97 99 100 98 99 98 99 97 95 96
92 96 96 97 98 98 98 98 98 99 99 98 99 96 98 95 95 97 98 97 95 98
67 73 80 86 95 97 98 98 96 96 97 97 98 97 98 96 97 98 98 98 96 92
30 40 45 51 54 58 63 67 79 88 93 94 97 98 98 98 98 97 98 98 98 98

GFSNIL_prec_cthk_120.txt.gz
RH
41 41 38 31 26 18 17 30 39 42 63 56 55 62 52 58 55 61 55 57 60 61
43 42 42 38 35 27 20 15 28 42 46 70 61 57 55 46 44 50 56 56 63 59
51 52 51 48 42 37 27 20 20 33 34 53 89 62 56 53 49 47 50 59 58 59
61 66 73 67 53 50 43 31 24 32 37 36 89 83 64 48 49 48 47 56 64 59
78 80 76 50 44 45 47 44 43 48 33 42 87 86 59 42 44 49 49 51 61 59
91 86 63 52 51 55 44 38 50 61 71 83 89 76 51 47 54 50 52 55 67 65
92 88 83 71 65 64 64 66 76 74 78 82 86 86 75 67 60 53 57 68 73 77
96 94 96 87 78 71 71 74 93 95 95 96 93 96 88 75 65 62 68 71 75 79
98 98 98 92 90 93 85 91 99 98 91 90 97 95 98 84 79 77 75 76 76 78
97 98 98 97 95 99 99 97 94 94 98 99 98 98 94 95 89 89 84 84 83 90
96 98 97 98 98 93 95 95 97 97 96 97 95 92 98 98 92 96 94 95 97 98
61 71 80 90 96 95 97 98 99 98 95 94 93 95 90 92 96 97 97 99 95 97
23 32 42 52 55 59 65 76 79 93 91 98 96 98 98 98 96 97 97 96 99 94
16 15 20 26 30 33 34 33 36 45 50 56 65 71 80 89 94 97 96 97 97 95

GFSNIL_prec_cthk_123.txt.gz
RH
46 43 41 39 38 33 29 23 18 36 47 50 53 49 62 75 86 97 95 86 82 72
54 49 42 39 37 38 34 27 23 20 25 44 40 43 57 61 72 84 92 85 82 94
69 63 54 46 39 38 38 36 31 25 20 20 32 34 42 61 75 83 85 86 91 86
74 67 60 53 51 52 50 52 45 37 32 25 22 34 32 42 73 94 93 93 76 58
80 74 69 69 72 76 70 70 58 52 46 34 31 28 35 27 31 79 89 89 72 57
88 84 85 85 76 69 59 57 55 49 50 43 39 30 31 32 40 39 58 85 74 62
88 90 94 85 82 73 71 67 62 53 53 47 42 45 45 37 55 58 61 80 80 69
92 95 95 93 92 86 81 81 82 77 64 61 64 70 76 73 71 74 84 90 77 65
98 97 97 97 99 97 96 98 93 92 88 84 83 88 99 89 88 98 81 89 84 71
97 96 97 98 98 98 96 98 98 97 96 93 95 98 95 98 88 98 95 96 92 97
62 68 76 84 90 96 96 96 96 97 98 98 98 99 98 98 98 98 97 98 98 93
30 39 46 47 51 59 65 71 79 82 85 90 97 98 98 98 97 97 97 98 97 96
13 16 23 32 34 35 36 40 43 44 48 52 56 66 69 78 86 94 95 98 98 97
11 10 10 11 15 20 22 26 29 31 35 39 41 41 45 44 49 58 63 67 72 77